Flag for Taiwan Weather past 2 weeks in Taichung, Taiwan

Now
63 °F

Partly sunny.


Feels Like: 63 °F
Forecast: 59 / 73 °F
Wind: 18 mph from Northeast

Location: Chiang Kai Shek

Current Time: Dec 21, 2014 at 9:09:02 AM

Latest Report: Dec 21, 2014 at 8:30 AM


Visibility: N/A

Pressure: 30.21 "Hg

Humidity: 64%

Dew point: 50 °F

Location of TaichungLocation

Historic Weather in Taichung — Graph

°F

Taichung temperature yesterday

Maximum temperature yesterday: 64 °F (at 1:30 PM)
Minimum temperature yesterday: 59 °F (at 12:00 AM)
Average temperature yesterday: 60 °F

Past Weeks' High & Low Weather Summary

 TemperatureHumidityPressure
High77 °F (Dec 7, 12:00 PM)94% (Dec 8, 5:30 AM)30.45 "Hg (Dec 8, 5:30 AM)
Low52 °F (Dec 17, 6:00 AM)39% (Dec 7, 1:30 PM)30.01 "Hg (Dec 7, 1:30 PM)
Average61 °F70%30.21 "Hg
* Reported Dec 6 8:00 AM — Dec 21 8:00 AM, Taichung, Weather by CustomWeather, © 2014

Note: Actual official high and low records may vary slightly from our data, if they occured in-between our weather recording intervals... More about our weather records

Advertising

Taichung weather history for previous 24 hours

 ConditionsComfort  
Time TempWeatherWind HumidityBarometerVisibility
8:00 AM
Dec 21
63 °FPartly sunny.20 mph59%30.21 "HgN/A
7:30 AM61 °FPartly sunny.20 mph63%30.18 "HgN/A
7:00 AM61 °FPartly sunny.21 mph63%30.18 "HgN/A
6:30 AM61 °FPassing clouds.22 mph63%30.18 "HgN/A
5:30 AM61 °FPassing clouds.20 mph63%30.15 "HgN/A
5:00 AM61 °FPassing clouds.25 mph63%30.15 "HgN/A
4:30 AM61 °FPassing clouds.21 mph63%30.15 "HgN/A
4:00 AM61 °FPassing clouds.26 mph63%30.15 "HgN/A
3:30 AM61 °FPassing clouds.25 mph68%30.15 "HgN/A
3:00 AM61 °FPassing clouds.17 mph68%30.15 "HgN/A
2:30 AM61 °FPassing clouds.13 mph59%30.15 "HgN/A
2:00 AM61 °FPassing clouds.17 mph59%30.15 "HgN/A
1:00 AM61 °FPassing clouds.20 mph59%30.15 "HgN/A
12:30 AM63 °FPassing clouds.20 mph56%30.15 "HgN/A
12:00 AM61 °FPassing clouds.21 mph59%30.15 "HgN/A
11:30 PM
Dec 20
61 °FPassing clouds.17 mph59%30.18 "HgN/A
11:00 PM61 °FPassing clouds.18 mph59%30.18 "HgN/A
10:30 PM61 °FPassing clouds.17 mph59%30.18 "HgN/A
10:00 PM61 °FPassing clouds.18 mph59%30.18 "HgN/A
9:30 PM59 °FPassing clouds.17 mph68%30.18 "HgN/A
9:00 PM59 °FPassing clouds.21 mph68%30.18 "HgN/A
8:30 PM61 °FPassing clouds.22 mph63%30.18 "HgN/A
8:00 PM59 °FPassing clouds.20 mph63%30.18 "HgN/A
7:30 PM59 °FPassing clouds.18 mph63%30.18 "HgN/A
7:00 PM59 °FPassing clouds.16 mph63%30.18 "HgN/A
6:30 PM59 °FPassing clouds.18 mph63%30.15 "HgN/A
6:00 PM59 °FPassing clouds.17 mph59%30.15 "HgN/A
5:30 PM59 °FPassing clouds.17 mph63%30.15 "HgN/A
5:00 PM61 °FPartly sunny.17 mph55%30.15 "HgN/A
4:30 PM61 °FPartly sunny.22 mph59%30.12 "HgN/A
4:00 PM63 °FPartly sunny.23 mph56%30.12 "HgN/A
3:30 PM61 °FPartly sunny.28 mph59%30.12 "HgN/A
3:00 PM63 °FPartly sunny.24 mph56%30.12 "HgN/A
2:30 PM63 °FScattered clouds.25 mph56%30.12 "HgN/A
2:00 PM63 °FScattered clouds.23 mph59%30.12 "HgN/A
1:30 PM64 °FBroken clouds.23 mph52%30.15 "HgN/A
1:00 PM61 °FBroken clouds.24 mph59%30.15 "HgN/A
12:30 PM63 °FPartly sunny.23 mph59%30.18 "HgN/A
12:00 PM63 °FPartly sunny.23 mph56%30.18 "HgN/A
11:30 AM61 °FPartly sunny.22 mph59%30.21 "HgN/A
11:00 AM59 °FPartly sunny.22 mph63%30.21 "HgN/A
10:30 AM61 °FPartly sunny.20 mph59%30.21 "HgN/A
10:00 AM59 °FOvercast.21 mph63%30.21 "HgN/A
9:30 AM59 °FOvercast.21 mph63%30.24 "HgN/A
9:00 AM59 °FOvercast.21 mph68%30.21 "HgN/A
Weather by CustomWeather, © 2014

See weather overviewHow to use our weather pages